Home   Weather   Mabalacat   Past weeks

Flag for Philippines Past Weather in Mabalacat, Philippines — Yesterday and Last 2 Weeks

Now
79 °F

Thunderstorms. Mostly cloudy.


Feels Like: 82 °F
Forecast: 78 / 81 °F
Wind: 3 mph from South

Location: Clarkfield Pampanga International Airport

Current Time: Jul 28, 2017 at 9:10:37 pm

Latest Report: Jul 28, 2017 at 8:00 pm


Visibility: 5 mi

Pressure: 29.71 "Hg

Humidity: 89%

Dew Point: 75 °F

Location of MabalacatLocation

Past Weather in Mabalacat — Graph

°F

Mabalacat Temperature Yesterday

Maximum temperature yesterday: 82 °F (at 3:00 pm)
Minimum temperature yesterday: 75 °F (at 12:00 am)
Average temperature yesterday: 78 °F

High & Low Weather Summary for the Past Weeks

 TemperatureHumidityPressure
High91 °F (Jul 17, 3:00 pm)100% (Jul 16, 6:00 am)29.92 "Hg (Jul 16, 6:00 am)
Low75 °F (Jul 14, 7:20 pm)59% (Jul 17, 3:00 pm)29.68 "Hg (Jul 24, 3:00 pm)
Average80 °F85%29.80 "Hg
* Reported Jul 13 8:00 pm — Jul 28 8:00 pm, Mabalacat. Weather by CustomWeather, © 2017

Note: Actual official high and low records may vary slightly from our data, if they occured in-between our weather recording intervals... More about our weather records

Advertising

Mabalacat Weather History for the Previous 24 Hours

Scroll right to see more
 ConditionsComfort  
Time TempWeatherWind HumidityBarometerVisibility
8:00 pm
Fri, Jul 28
79 °FThunderstorms. Mostly cloudy.3 mph89%29.71 "Hg5 mi
7:00 pm79 °FThunderstorms. Mostly cloudy.2 mph94%29.71 "Hg5 mi
6:00 pm81 °FLight rain. More clouds than sun.8 mph89%29.71 "Hg5 mi
5:00 pm81 °FLight rain. More clouds than sun.2 mph89%29.68 "Hg5 mi
4:00 pm81 °FLight rain. More clouds than sun.2 mph89%29.68 "Hg5 mi
3:00 pm82 °FWarm.N/A84%29.68 "HgN/A
2:00 pm82 °FMore clouds than sun.5 mph84%29.68 "Hg5 mi
1:00 pm81 °FLight rain. More clouds than sun.5 mph94%29.71 "Hg5 mi
12:00 pm82 °FLight rain. More clouds than sun.7 mph84%29.74 "Hg5 mi
11:00 am86 °FLight rain. More clouds than sun.8 mph75%29.74 "Hg5 mi
10:00 am86 °FMore clouds than sun.8 mph75%29.74 "Hg5 mi
9:00 am81 °FBroken clouds.2 mph94%29.74 "Hg5 mi
8:00 am79 °FMore clouds than sun.2 mph94%29.74 "Hg4 mi
7:00 am77 °FLight rain. More clouds than sun.2 mph94%29.71 "Hg3 mi
6:00 am77 °FLight rain. More clouds than sun.1 mph94%29.71 "Hg3 mi
5:00 am77 °FLight rain. Mostly cloudy.3 mph94%29.71 "Hg3 mi
4:00 am77 °FLight rain. Fog.1 mph94%29.71 "Hg1 mi
3:00 am77 °FRain. Mostly cloudy.7 mph94%29.71 "Hg3 mi
2:00 am77 °FLight rain. Mostly cloudy.1 mph94%29.71 "Hg3 mi
1:00 am77 °FLight rain. Mostly cloudy.5 mph100%29.74 "Hg3 mi
12:00 am77 °FLight rain. Mostly cloudy.3 mph94%29.77 "Hg4 mi
11:00 pm
Thu, Jul 27
77 °FLight rain. Mostly cloudy.No wind100%29.77 "Hg4 mi
10:00 pm77 °FLight rain. Mostly cloudy.5 mph100%29.77 "Hg4 mi
9:00 pm77 °FLight rain. Mostly cloudy.7 mph100%29.77 "Hg3 mi
Weather by CustomWeather, © 2017

See weather overviewHow to use our weather pages